Weather History for Kalispell, MT

Change the Weather History Date:

Tuesday, October 9, 2012

  Actual Average Record
Temperature  
Mean Temperature 46 °F 45 °F  
Max Temperature 60 °F 59 °F 74 °F (1988)
Min Temperature 31 °F 31 °F 10 °F (2009)
Degree Days  
Heating Degree Days 19 20  
Month to date heating degree days 196 169  
Since 1 July heating degree days 582 669  
Cooling Degree Days 0 0  
Month to date cooling degree days 0 0  
Year to date cooling degree days 192 147  
Moisture  
Dew Point 33 °F    
Average Humidity 65    
Maximum Humidity 92    
Minimum Humidity 37    
Precipitation  
Precipitation T in 0.02 in 0.48 in (1927)
Month to date precipitation 0.36 0.26  
Year to date precipitation 15.31 13.25  
Snow  
Snow 0.00 in - - ()
Month to date snowfall 0.0  
Year to date snowfall 25.1  
Since 1 July snowfall 0.0  
Snow Depth 0.00 in    
Sea Level Pressure  
Sea Level Pressure 30.10 in    
Wind  
Wind Speed 4 mph (NNE)    
Max Wind Speed 15 mph    
Max Gust Speed 20 mph    
Visibility 10 miles    
Events      
T = Trace of Precipitation, MM = Missing Value Source: NWS Daily Summary

Daily Weather History Graph

Daily Weather History Graph

Search for Another Location

Airport:

Trip Planner

Search our weather history database for the weather conditions in past years. The results will help you decide how hot, cold, wet, or windy it might be!

Date:

Astronomy

Oct. 09, 2012 Rise Set
Actual Time 7:48 AM MDT 6:58 PM MDT
Civil Twilight 7:17 AM MDT 7:29 PM MDT
Nautical Twilight 6:41 AM MDT 8:05 PM MDT
Astronomical Twilight 6:04 AM MDT 8:42 PM MDT
Moon 1:02 AM MDT (10/9) 3:53 PM MDT (10/9)
Length of Visible Light 12h 12m
Length of Day
11h 09m
Last Quarter, 36% of the Moon is Illuminated
Oct 9
Last Quarter
Oct 15
New
Oct 21
First Quarter
Oct 29
Full
Nov 6
Last Quarter

Hourly Weather History & Observations

Time (MDT) Temp. Windchill Dew Point Humidity Pressure Visibility Wind Dir Wind Speed Gust Speed Precip Events Conditions
12:55 AM 45.0 °F 39.7 °F 33.1 °F 63% 30.08 in 10.0 mi NNE 10.4 mph - N/A   Overcast
1:55 AM 44.1 °F 38.1 °F 34.0 °F 68% 30.08 in 10.0 mi North 11.5 mph - 0.00 in   Overcast
2:55 AM 44.1 °F 38.6 °F 34.0 °F 68% 30.09 in 10.0 mi North 10.4 mph - N/A   Overcast
3:55 AM 44.1 °F 40.1 °F 33.1 °F 65% 30.10 in 10.0 mi North 6.9 mph - N/A   Overcast
4:55 AM 43.0 °F 38.8 °F 33.1 °F 68% 30.10 in 10.0 mi North 6.9 mph - N/A   Overcast
5:55 AM 41.0 °F 36.4 °F 33.1 °F 73% 30.12 in 10.0 mi NNE 6.9 mph - N/A   Overcast
6:55 AM 39.9 °F 37.8 °F 33.1 °F 77% 30.12 in 10.0 mi North 3.5 mph - N/A   Overcast
7:55 AM 36.0 °F - 32.0 °F 86% 30.15 in 10.0 mi Calm Calm - N/A   Clear
8:55 AM 39.9 °F 37.8 °F 33.1 °F 77% 30.16 in 10.0 mi WNW 3.5 mph - N/A   Clear
9:55 AM 46.0 °F 42.5 °F 35.1 °F 66% 30.15 in 10.0 mi NNE 6.9 mph - N/A   Clear
10:55 AM 50.0 °F - 35.1 °F 57% 30.16 in 10.0 mi NE 9.2 mph - N/A   Clear
11:55 AM 52.0 °F - 34.0 °F 50% 30.15 in 10.0 mi South 4.6 mph - N/A   Clear
12:55 PM 53.1 °F - 33.1 °F 47% 30.14 in 10.0 mi SE 4.6 mph - N/A   Clear
1:55 PM 57.0 °F - 34.0 °F 42% 30.11 in 10.0 mi Calm Calm - N/A   Clear
2:55 PM 57.9 °F - 33.1 °F 39% 30.09 in 10.0 mi Calm Calm - N/A   Clear
3:55 PM 59.0 °F - 33.1 °F 38% 30.07 in 10.0 mi Calm Calm - N/A   Clear
4:55 PM 59.0 °F - 34.0 °F 39% 30.06 in 10.0 mi Variable 3.5 mph - N/A   Clear
5:55 PM 57.9 °F - 33.1 °F 39% 30.05 in 10.0 mi South 5.8 mph - N/A   Clear
6:55 PM 52.0 °F - 35.1 °F 53% 30.06 in 10.0 mi Calm Calm - N/A   Clear
7:55 PM 42.1 °F 40.2 °F 33.1 °F 70% 30.09 in 10.0 mi NE 3.5 mph - N/A   Clear
8:55 PM 39.0 °F - 33.1 °F 79% 30.08 in 10.0 mi Calm Calm - N/A   Clear
9:55 PM 36.0 °F - 30.9 °F 82% 30.09 in 10.0 mi Calm Calm - N/A   Clear
10:55 PM 34.0 °F - 30.9 °F 89% 30.09 in 10.0 mi Calm Calm - N/A   Clear
11:55 PM 32.0 °F 28.7 °F 30.0 °F 92% 30.08 in 10.0 mi WNW 3.5 mph - N/A   Clear